Powrót do katalogu

BESSA

AktywnyŁącznośćSSO
NORAD 68836·PAYLOAD·🇵🇹 Portugal

Wystrzelony Mar 30, 2026 z Vandenberg Space Force Base

Loading…

Następne Przeloty (najbliższe 24 godziny)

TLE

ŚwieżeSource: Space-Track

Epoka: Sep 14, 2026, 03:16 UTC

1 68836U 26067CX  26257.13622161  .00007482  00000-0  35546-3 0  9993
2 68836  97.4623 214.4475 0012233  67.6604 292.5926 15.19447403 25247

Śledź BESSA w czasie rzeczywistym z AllMySat

Download on the App Store